| time (UTC) | temp F | wind direction | speed knots | gust knots | rain 1hr in | rain 24hr in | rain mn in | humidity % | barometer mb |
| 20260506113750 | 73 | 24 | 0.0 | 0.0 | 0.00 | 0.00 | 0.00 | 95 | 991.3 |
| 20260506112750 | 73 | 22 | 0.0 | 3.5 | 0.00 | 0.00 | 0.00 | 95 | 991.7 |
| 20260506111748 | 74 | 40 | 0.0 | 0.9 | 0.00 | 0.00 | 0.00 | 95 | 991.7 |
| 20260506103313 | 74 | 40 | 0.0 | 0.0 | 0.00 | 0.00 | 0.00 | 95 | 991.5 |
| 20260506102314 | 74 | 40 | 0.0 | 0.0 | 0.00 | 0.00 | 0.00 | 94 | 991.3 |
| 20260506101318 | 74 | 41 | 0.0 | 0.0 | 0.00 | 0.00 | 0.00 | 94 | 991.1 |
| 20260506100245 | 74 | 41 | 0.0 | 0.0 | 0.00 | 0.00 | 0.00 | 94 | 991.1 |
| 20260506094127 | 74 | 40 | 0.0 | 1.7 | 0.00 | 0.00 | 0.00 | 93 | 990.8 |
| 20260506093117 | 74 | 40 | 0.0 | 1.7 | 0.00 | 0.00 | 0.00 | 93 | 990.8 |
| 20260506092053 | 74 | 39 | 0.9 | 2.6 | 0.00 | 0.00 | 0.00 | 93 | 990.7 |
| 20260506091110 | 74 | 39 | 0.9 | 2.6 | 0.00 | 0.00 | 0.00 | 93 | 990.4 |
| 20260506090116 | 74 | 37 | 0.9 | 6.1 | 0.00 | 0.00 | 0.00 | 93 | 990.4 |
| 20260506085054 | 74 | 42 | 0.9 | 6.1 | 0.00 | 0.00 | 0.00 | 93 | 990.3 |
| 20260506084025 | 74 | 30 | 0.9 | 4.3 | 0.00 | 0.00 | 0.00 | 93 | 990.4 |
| 20260506082958 | 74 | 30 | 0.9 | 5.2 | 0.00 | 0.00 | 0.00 | 93 | 990.4 |
| 20260506082006 | 74 | 48 | 0.9 | 7.0 | 0.00 | 0.00 | 0.00 | 92 | 990.3 |
| 20260506072817 | 74 | 84 | 0.9 | 7.8 | 0.00 | 0.00 | 0.00 | 92 | 990.8 |
| 20260506071800 | 75 | 20 | 1.7 | 7.8 | 0.00 | 0.00 | 0.00 | 92 | 990.8 |
| 20260506070821 | 75 | 38 | 1.7 | 7.8 | 0.00 | 0.00 | 0.00 | 92 | 990.8 |
| 20260506061816 | 75 | 65 | 1.7 | 9.6 | 0.00 | 0.00 | 0.00 | 92 | 990.4 |
| 20260506060822 | 75 | 59 | 1.7 | 9.6 | 0.00 | 0.00 | 0.00 | 92 | 990.3 |
| 20260506050614 | 75 | 32 | 1.7 | 8.7 | 0.00 | 0.00 | 0.00 | 92 | 990.8 |
| 20260506044624 | 75 | 40 | 1.7 | 7.0 | 0.00 | 0.00 | 0.00 | 92 | 990.4 |
| 20260506043607 | 75 | 40 | 0.9 | 7.8 | 0.00 | 0.00 | 0.00 | 91 | 990.7 |
| 20260506041450 | 75 | 34 | 0.9 | 5.2 | 0.00 | 0.00 | 0.00 | 90 | 990.3 |
| 20260506040447 | 76 | 29 | 1.7 | 4.3 | 0.00 | 0.00 | 0.00 | 90 | 990.3 |
| 20260506035424 | 76 | 37 | 0.9 | 4.3 | 0.00 | 0.00 | 0.00 | 90 | 990.3 |
| 20260506032142 | 76 | 35 | 0.9 | 3.5 | 0.00 | 0.00 | 0.00 | 89 | 990.0 |
| 20260506031158 | 76 | 44 | 0.9 | 2.6 | 0.00 | 0.00 | 0.00 | 88 | 989.8 |
| 20260506030204 | 76 | 36 | 0.0 | 1.7 | 0.00 | 0.00 | 0.00 | 88 | 989.8 |
| 20260506024007 | 77 | 37 | 0.0 | 0.0 | 0.00 | 0.00 | 0.00 | 86 | 989.2 |
| 20260506023005 | 77 | 38 | 0.0 | 0.9 | 0.00 | 0.00 | 0.00 | 86 | 989.2 |
| 20260506021933 | 77 | 38 | 0.0 | 1.7 | 0.00 | 0.00 | 0.00 | 85 | 989.0 |
| 20260506015730 | 78 | 36 | 0.0 | 1.7 | 0.00 | 0.00 | 0.00 | 84 | 988.7 |
| 20260506014706 | 78 | 37 | 0.9 | 5.2 | 0.00 | 0.00 | 0.00 | 83 | 988.7 |
| 20260506013704 | 78 | 31 | 0.9 | 5.2 | 0.00 | 0.00 | 0.00 | 83 | 988.4 |
| 20260506012708 | 79 | 27 | 0.9 | 4.3 | 0.00 | 0.00 | 0.00 | 82 | 988.5 |
| 20260506011716 | 79 | 26 | 0.9 | 3.5 | 0.00 | 0.00 | 0.00 | 81 | 988.5 |
| 20260506010741 | 79 | 27 | 0.9 | 5.2 | 0.00 | 0.00 | 0.00 | 81 | 988.3 |
| 20260506005752 | 80 | 34 | 0.9 | 5.2 | 0.00 | 0.00 | 0.00 | 80 | 988.3 |
| 20260506004753 | 80 | 34 | 1.7 | 4.3 | 0.00 | 0.00 | 0.00 | 79 | 988.3 |
| 20260506003723 | 81 | 17 | 1.7 | 4.3 | 0.00 | 0.00 | 0.00 | 79 | 988.5 |
| 20260506002741 | 81 | 51 | 1.7 | 5.2 | 0.00 | 0.00 | 0.00 | 78 | 988.5 |
| 20260506001731 | 81 | 22 | 1.7 | 7.8 | 0.00 | 0.00 | 0.00 | 78 | 988.5 |
| 20260506000709 | 81 | 47 | 1.7 | 7.8 | 0.00 | 0.00 | 0.00 | 79 | 988.4 |
| 20260505235715 | 81 | 30 | 1.7 | 5.2 | 0.00 | 0.00 | 0.00 | 78 | 988.5 |
| 20260505234648 | 82 | 46 | 1.7 | 7.0 | 0.00 | 0.00 | 0.00 | 77 | 988.5 |
| 20260505233640 | 82 | 28 | 1.7 | 7.0 | 0.00 | 0.00 | 0.00 | 77 | 988.2 |
| 20260505232618 | 82 | 39 | 1.7 | 8.7 | 0.00 | 0.00 | 0.00 | 77 | 988.1 |
| 20260505231609 | 82 | 41 | 2.6 | 8.7 | 0.00 | 0.00 | 0.00 | 76 | 988.1 |
| 20260505230625 | 83 | 30 | 1.7 | 7.8 | 0.00 | 0.00 | 0.00 | 76 | 988.0 |
| 20260505224507 | 83 | 27 | 1.7 | 7.0 | 0.00 | 0.00 | 0.00 | 75 | 987.8 |
| 20260505222259 | 84 | 65 | 1.7 | 8.7 | 0.00 | 0.00 | 0.00 | 75 | 987.8 |
| 20260505214928 | 85 | 40 | 1.7 | 7.8 | 0.00 | 0.00 | 0.00 | 73 | 988.2 |
| 20260505213857 | 85 | 43 | 1.7 | 8.7 | 0.00 | 0.00 | 0.00 | 74 | 988.1 |
| 20260505212922 | 85 | 23 | 2.6 | 8.7 | 0.00 | 0.00 | 0.00 | 72 | 988.1 |
| 20260505211915 | 86 | 42 | 1.7 | 7.8 | 0.00 | 0.00 | 0.00 | 71 | 988.3 |
| 20260505210940 | 86 | 26 | 1.7 | 7.0 | 0.00 | 0.00 | 0.00 | 73 | 988.7 |
| 20260505205949 | 86 | 55 | 0.9 | 4.3 | 0.00 | 0.00 | 0.00 | 72 | 988.7 |
| 20260505204947 | 85 | 53 | 0.9 | 6.1 | 0.00 | 0.00 | 0.00 | 73 | 988.7 |
| 20260505203920 | 85 | 83 | 1.7 | 7.8 | 0.00 | 0.00 | 0.00 | 73 | 988.7 |
| 20260505201708 | 84 | 34 | 1.7 | 8.7 | 0.00 | 0.00 | 0.00 | 73 | 989.2 |
| 20260505200714 | 83 | 17 | 2.6 | 8.7 | 0.00 | 0.00 | 0.00 | 74 | 989.3 |
| 20260505195703 | 83 | 30 | 2.6 | 9.6 | 0.00 | 0.00 | 0.00 | 76 | 989.3 |
| 20260505194726 | 83 | 46 | 2.6 | 9.6 | 0.00 | 0.00 | 0.00 | 74 | 989.3 |
| 20260505191336 | 83 | 53 | 0.9 | 7.0 | 0.00 | 0.00 | 0.00 | 75 | 989.9 |
| 20260505185125 | 82 | 49 | 0.9 | 6.1 | 0.00 | 0.00 | 0.00 | 78 | 990.2 |
| 20260505184113 | 81 | 114 | 1.7 | 7.0 | 0.00 | 0.00 | 0.00 | 79 | 990.4 |
| 20260505183136 | 81 | 67 | 0.9 | 13.9 | 0.00 | 0.00 | 0.00 | 79 | 990.4 |
| 20260505180936 | 80 | 49 | 0.9 | 3.5 | 0.00 | 0.00 | 0.00 | 80 | 990.8 |
| 20260505175953 | 79 | 53 | 0.9 | 7.0 | 0.00 | 0.00 | 0.00 | 81 | 990.8 |
| 20260505174959 | 78 | 70 | 0.9 | 7.0 | 0.00 | 0.00 | 0.00 | 81 | 990.9 |
| 20260505174013 | 77 | 49 | 0.9 | 3.5 | 0.00 | 0.00 | 0.00 | 83 | 991.1 |
| 20260505172959 | 76 | 84 | 0.0 | 1.7 | 0.00 | 0.00 | 0.00 | 85 | 991.1 |
| 20260505171946 | 76 | 78 | 0.0 | 2.6 | 0.00 | 0.00 | 0.00 | 85 | 991.2 |
| 20260505170958 | 75 | 61 | 0.0 | 5.2 | 0.00 | 0.00 | 0.00 | 86 | 991.2 |
| 20260505165927 | 75 | 46 | 0.0 | 5.2 | 0.00 | 0.00 | 0.00 | 87 | 991.2 |
| 20260505164939 | 74 | 99 | 0.0 | 4.3 | 0.00 | 0.00 | 0.00 | 88 | 991.3 |
| 20260505163935 | 74 | 96 | 0.0 | 2.6 | 0.00 | 0.00 | 0.00 | 88 | 991.3 |
| 20260505162929 | 73 | 106 | 0.0 | 2.6 | 0.00 | 0.00 | 0.00 | 88 | 991.3 |
| 20260505161934 | 73 | 107 | 0.0 | 1.7 | 0.00 | 0.00 | 0.00 | 89 | 991.3 |
| 20260505152822 | 72 | 76 | 0.0 | 2.6 | 0.00 | 0.00 | 0.00 | 90 | 991.1 |
| 20260505151807 | 72 | 82 | 0.0 | 2.6 | 0.00 | 0.00 | 0.00 | 90 | 991.1 |
| 20260505150743 | 72 | 71 | 0.0 | 2.6 | 0.00 | 0.00 | 0.00 | 91 | 991.1 |
| 20260505125036 | 70 | 82 | 0.0 | 11.3 | 0.00 | 0.00 | 0.00 | 91 | 990.0 |
| 20260505124006 | 70 | 84 | 0.9 | 11.3 | 0.00 | 0.00 | 0.00 | 91 | 989.9 |
| 20260505122958 | 70 | 25 | 0.0 | 7.8 | 0.00 | 0.00 | 0.00 | 92 | 989.9 |
| 20260505122011 | 70 | 46 | 0.9 | 7.8 | 0.00 | 0.00 | 0.00 | 92 | 989.4 |
| 20260505121014 | 70 | 71 | 0.9 | 4.3 | 0.00 | 0.00 | 0.00 | 92 | 989.4 |
| 20260505115941 | 70 | 76 | 0.0 | 2.6 | 0.00 | 0.00 | 0.00 | 92 | 989.4 |
| 20260505114907 | 70 | 83 | 0.9 | 5.2 | 0.00 | 0.00 | 0.00 | 92 | 989.0 |